[Date Prev][Date Next][Thread Prev][Thread Next] - [Date Index][Thread Index][Author Index]
2 Line ISS Keps 12-8
- Subject: [sarex] 2 Line ISS Keps 12-8
- From: "Dave Larsen PhD" <doc@xxxxxxxxxxx>
- Date: Mon, 8 Dec 2003 04:05:23 -0800
ISS
1 25544U 98067A 03342.18964466 .00024452 00000-0 24461-3 0 8688
2 25544 51.6292 222.2543 0006081 223.3969 276.8352 15.65414566288202
----
Via the sarex mailing list at AMSAT.ORG courtesy of AMSAT-NA.
To unsubscribe, send "unsubscribe sarex" to Majordomo@amsat.org
AMSAT Home